M I D A S
Marine Information and Data Acquisition System
Tripno 1314 of the Zeeleeuw from 2007-07-10 09:12:23 to 2007-07-10 14:21:19
Back to CruiseResearch ActivitiesStationsMapUnderway DataData graphs

EquipmentUnitsComment
TimeDGPSUTC
LatitudeDGPSDM.mWGS84
LongitudeDGPSDM.mWGS84
TemperatureSBE03/SBE38deg celciusITS90
ConductivitySBE21S/mITS90
SalinitySBE21 Practical Salinity Units
ChlorophylAChelsea fluorimeterg/lCalibrated in Aceton
Missing or incorrect values are displayed as -999
Sea surface data collected by the RV Zeeleeuw from 2007-07-10 05:43:28 to 2007-07-10 14:29:43
Time Latitude Longitude Temperature Conductivity Salinity ChlorophylA
2007-07-10 05:44:33 51°13.599 2°56.091 -999 -999 -999 -999
2007-07-10 05:45:33 51°13.599 2°56.092 -999 -999 -999 -999
2007-07-10 05:46:33 51°13.6 2°56.094 -999 -999 -999 -999
2007-07-10 05:47:33 51°13.6 2°56.095 -999 -999 -999 -999
2007-07-10 05:48:33 51°13.6 2°56.095 -999 -999 -999 -999
2007-07-10 05:49:33 51°13.6 2°56.095 -999 -999 -999 -999
2007-07-10 05:50:33 51°13.6 2°56.094 -999 -999 -999 -999
2007-07-10 05:51:33 51°13.6 2°56.095 -999 -999 -999 -999
2007-07-10 05:52:33 51°13.6 2°56.096 -999 -999 -999 -999
2007-07-10 05:53:33 51°13.6 2°56.096 -999 -999 -999 -999
2007-07-10 05:54:33 51°13.601 2°56.095 -999 -999 -999 -999
2007-07-10 05:55:33 51°13.6 2°56.096 -999 -999 -999 -999
2007-07-10 05:56:33 51°13.601 2°56.095 -999 -999 -999 -999
2007-07-10 05:57:33 51°13.601 2°56.094 -999 -999 -999 -999
2007-07-10 05:58:33 51°13.6 2°56.095 -999 -999 -999 -999
2007-07-10 05:59:33 51°13.6 2°56.095 -999 -999 -999 -999
2007-07-10 06:00:33 51°13.6 2°56.096 -999 -999 -999 -999
2007-07-10 06:01:33 51°13.599 2°56.095 -999 -999 -999 -999
2007-07-10 06:02:33 51°13.599 2°56.095 -999 -999 -999 -999
2007-07-10 06:03:33 51°13.599 2°56.095 -999 -999 -999 -999
2007-07-10 06:04:33 51°13.599 2°56.096 -999 -999 -999 -999
2007-07-10 06:05:33 51°13.599 2°56.096 -999 -999 -999 -999
2007-07-10 06:06:33 51°13.599 2°56.096 -999 -999 -999 -999
2007-07-10 06:07:33 51°13.599 2°56.096 -999 -999 -999 -999
2007-07-10 06:08:33 51°13.599 2°56.096 -999 -999 -999 -999
2007-07-10 06:09:33 51°13.599 2°56.097 -999 -999 -999 -999
2007-07-10 06:10:33 51°13.599 2°56.097 -999 -999 -999 -999
2007-07-10 06:11:33 51°13.599 2°56.097 -999 -999 -999 -999
2007-07-10 06:12:33 51°13.598 2°56.096 -999 -999 -999 -999
2007-07-10 06:13:33 51°13.597 2°56.097 -999 -999 -999 -999
2007-07-10 06:14:33 51°13.597 2°56.097 -999 -999 -999 -999
2007-07-10 06:15:33 51°13.597 2°56.097 -999 -999 -999 -999
2007-07-10 06:16:33 51°13.598 2°56.096 -999 -999 -999 -999
2007-07-10 06:17:33 51°13.598 2°56.096 -999 -999 -999 -999
2007-07-10 06:18:33 51°13.598 2°56.096 -999 -999 -999 -999
2007-07-10 06:19:33 51°13.598 2°56.096 -999 -999 -999 -999
2007-07-10 06:20:33 51°13.597 2°56.096 -999 -999 -999 -999
2007-07-10 06:21:33 51°13.598 2°56.094 -999 -999 -999 -999
2007-07-10 06:22:33 51°13.598 2°56.094 -999 -999 -999 -999
2007-07-10 06:23:33 51°13.599 2°56.094 -999 -999 -999 -999
2007-07-10 06:24:33 51°13.599 2°56.093 -999 -999 -999 -999
2007-07-10 06:25:33 51°13.599 2°56.094 -999 -999 -999 -999
2007-07-10 06:26:33 51°13.6 2°56.093 -999 -999 -999 -999
2007-07-10 06:27:33 51°13.6 2°56.093 -999 -999 -999 -999
2007-07-10 06:28:33 51°13.6 2°56.093 -999 -999 -999 -999
2007-07-10 06:29:33 51°13.599 2°56.094 -999 -999 -999 -999
2007-07-10 06:30:33 51°13.598 2°56.096 -999 -999 -999 -999
2007-07-10 06:31:33 51°13.597 2°56.097 -999 -999 -999 -999
2007-07-10 06:32:33 51°13.597 2°56.097 -999 -999 -999 -999
2007-07-10 06:33:33 51°13.597 2°56.098 -999 -999 -999 -999
2007-07-10 06:34:33 51°13.597 2°56.097 -999 -999 -999 -999
2007-07-10 06:35:33 51°13.597 2°56.097 -999 -999 -999 -999
2007-07-10 06:36:33 51°13.598 2°56.097 -999 -999 -999 -999
2007-07-10 06:37:33 51°13.597 2°56.097 -999 -999 -999 -999
2007-07-10 06:38:33 51°13.596 2°56.097 -999 -999 -999 -999
2007-07-10 06:39:33 51°13.597 2°56.097 -999 -999 -999 -999
2007-07-10 06:40:33 51°13.597 2°56.096 -999 -999 -999 -999
2007-07-10 06:41:33 51°13.597 2°56.092 -999 -999 -999 -999
2007-07-10 06:42:33 51°13.595 2°56.098 -999 -999 -999 -999
2007-07-10 06:43:33 51°13.59 2°56.096 -999 -999 -999 -999
2007-07-10 06:44:33 51°13.592 2°56.1 -999 -999 -999 -999
2007-07-10 06:45:33 51°13.595 2°56.098 -999 -999 -999 -999
2007-07-10 06:46:33 51°13.595 2°56.098 -999 -999 -999 -999
2007-07-10 06:47:33 51°13.596 2°56.099 -999 -999 -999 -999
2007-07-10 06:48:33 51°13.596 2°56.097 -999 -999 -999 -999
2007-07-10 06:49:33 51°13.596 2°56.096 -999 -999 -999 -999
2007-07-10 06:50:33 51°13.596 2°56.098 -999 -999 -999 -999
2007-07-10 06:51:33 51°13.596 2°56.099 -999 -999 -999 -999
2007-07-10 06:52:33 51°13.596 2°56.099 -999 -999 -999 -999
2007-07-10 06:53:33 51°13.597 2°56.099 -999 -999 -999 -999
2007-07-10 06:54:33 51°13.597 2°56.098 -999 -999 -999 -999
2007-07-10 06:55:33 51°13.597 2°56.098 -999 -999 -999 -999
2007-07-10 06:56:33 51°13.597 2°56.098 -999 -999 -999 -999
2007-07-10 06:57:33 51°13.597 2°56.097 -999 -999 -999 -999
2007-07-10 06:58:33 51°13.597 2°56.097 -999 -999 -999 -999
2007-07-10 06:59:33 51°13.597 2°56.097 -999 -999 -999 -999
2007-07-10 07:00:33 51°13.597 2°56.097 -999 -999 -999 -999
2007-07-10 07:01:33 51°13.598 2°56.096 -999 -999 -999 -999
2007-07-10 07:02:33 51°13.598 2°56.097 -999 -999 -999 -999
2007-07-10 07:03:33 51°13.598 2°56.096 -999 -999 -999 -999
2007-07-10 07:04:33 51°13.598 2°56.097 -999 -999 -999 -999
2007-07-10 07:05:33 51°13.598 2°56.097 -999 -999 -999 -999
2007-07-10 07:06:33 51°13.597 2°56.098 -999 -999 -999 -999
2007-07-10 07:07:33 51°13.598 2°56.097 -999 -999 -999 -999
2007-07-10 07:08:33 51°13.597 2°56.1 -999 -999 -999 -999
2007-07-10 07:09:33 51°13.597 2°56.098 -999 -999 -999 -999
2007-07-10 07:10:33 51°13.598 2°56.093 -999 -999 -999 -999
2007-07-10 07:11:33 51°13.597 2°56.098 -999 -999 -999 -999
2007-07-10 07:12:33 51°13.597 2°56.099 -999 -999 -999 -999
2007-07-10 07:13:33 51°13.597 2°56.099 -999 -999 -999 -999
2007-07-10 07:14:33 51°13.597 2°56.1 -999 -999 -999 -999
2007-07-10 07:15:33 51°13.597 2°56.099 -999 -999 -999 -999
2007-07-10 07:16:33 51°13.597 2°56.103 -999 -999 -999 -999
2007-07-10 07:17:33 51°13.597 2°56.095 -999 -999 -999 -999
2007-07-10 07:18:33 51°13.597 2°56.097 -999 -999 -999 -999
2007-07-10 07:19:33 51°13.597 2°56.1 -999 -999 -999 -999
2007-07-10 07:20:33 51°13.597 2°56.097 -999 -999 -999 -999
2007-07-10 07:21:33 51°13.597 2°56.097 -999 -999 -999 -999
2007-07-10 07:22:33 51°13.598 2°56.09 -999 -999 -999 -999
2007-07-10 07:23:33 51°13.598 2°56.095 -999 -999 -999 -999
2007-07-10 07:24:33 51°13.598 2°56.097 -999 -999 -999 -999
2007-07-10 07:25:33 51°13.598 2°56.096 -999 -999 -999 -999
2007-07-10 07:26:33 51°13.597 2°56.095 -999 -999 -999 -999
2007-07-10 07:27:33 51°13.598 2°56.095 -999 -999 -999 -999
2007-07-10 07:28:33 51°13.599 2°56.096 -999 -999 -999 -999
2007-07-10 07:29:33 51°13.603 2°56.1 -999 -999 -999 -999
2007-07-10 07:30:33 51°13.605 2°56.104 -999 -999 -999 -999
2007-07-10 07:31:33 51°13.598 2°56.1 -999 -999 -999 -999
2007-07-10 07:32:33 51°13.591 2°56.095 -999 -999 -999 -999
2007-07-10 07:33:33 51°13.592 2°56.097 -999 -999 -999 -999
2007-07-10 07:34:33 51°13.593 2°56.102 -999 -999 -999 -999
2007-07-10 07:35:33 51°13.595 2°56.102 -999 -999 -999 -999
2007-07-10 07:36:33 51°13.596 2°56.103 -999 -999 -999 -999
2007-07-10 07:37:33 51°13.593 2°56.099 -999 -999 -999 -999
2007-07-10 07:38:33 51°13.595 2°56.098 -999 -999 -999 -999
2007-07-10 07:39:33 51°13.6 2°56.103 -999 -999 -999 -999
2007-07-10 07:40:33 51°13.603 2°56.104 -999 -999 -999 -999
2007-07-10 07:41:33 51°13.596 2°56.099 -999 -999 -999 -999
2007-07-10 07:42:33 51°13.601 2°56.105 -999 -999 -999 -999
2007-07-10 07:43:33 51°13.595 2°56.097 -999 -999 -999 -999
2007-07-10 07:44:33 51°13.59 2°56.091 -999 -999 -999 -999
2007-07-10 07:45:33 51°13.594 2°56.094 -999 -999 -999 -999
2007-07-10 07:46:33 51°13.596 2°56.095 -999 -999 -999 -999
2007-07-10 07:47:33 51°13.596 2°56.094 -999 -999 -999 -999
2007-07-10 07:48:33 51°13.596 2°56.094 -999 -999 -999 -999
2007-07-10 07:49:33 51°13.597 2°56.094 -999 -999 -999 -999
2007-07-10 07:50:33 51°13.598 2°56.094 -999 -999 -999 -999
2007-07-10 07:51:33 51°13.599 2°56.095 -999 -999 -999 -999
2007-07-10 07:52:33 51°13.598 2°56.096 -999 -999 -999 -999
2007-07-10 07:53:33 51°13.598 2°56.097 -999 -999 -999 -999
2007-07-10 07:54:33 51°13.594 2°56.087 -999 -999 -999 -999
2007-07-10 07:55:33 51°13.602 2°56.101 -999 -999 -999 -999
2007-07-10 07:56:33 51°13.599 2°56.096 -999 -999 -999 -999
2007-07-10 07:57:33 51°13.6 2°56.094 -999 -999 -999 -999
2007-07-10 07:58:33 51°13.602 2°56.093 -999 -999 -999 -999
2007-07-10 07:59:33 51°13.603 2°56.095 -999 -999 -999 -999
2007-07-10 08:00:33 51°13.604 2°56.097 -999 -999 -999 -999
2007-07-10 08:01:33 51°13.605 2°56.097 -999 -999 -999 -999
2007-07-10 08:02:33 51°13.605 2°56.097 -999 -999 -999 -999
2007-07-10 08:03:33 51°13.604 2°56.096 -999 -999 -999 -999
2007-07-10 08:04:33 51°13.602 2°56.097 -999 -999 -999 -999
2007-07-10 08:05:33 51°13.6 2°56.097 -999 -999 -999 -999
2007-07-10 08:06:33 51°13.599 2°56.097 -999 -999 -999 -999
2007-07-10 08:07:33 51°13.597 2°56.097 -999 -999 -999 -999
2007-07-10 08:08:33 51°13.599 2°56.096 -999 -999 -999 -999
2007-07-10 08:09:33 51°13.599 2°56.096 -999 -999 -999 -999
2007-07-10 08:10:33 51°13.598 2°56.096 -999 -999 -999 -999
2007-07-10 08:11:33 51°13.597 2°56.097 -999 -999 -999 -999
2007-07-10 08:12:33 51°13.598 2°56.096 -999 -999 -999 -999
2007-07-10 08:13:33 51°13.598 2°56.097 -999 -999 -999 -999
2007-07-10 08:14:33 51°13.598 2°56.097 -999 -999 -999 -999
2007-07-10 08:15:33 51°13.598 2°56.097 -999 -999 -999 -999
2007-07-10 08:16:33 51°13.596 2°56.097 -999 -999 -999 -999
2007-07-10 08:17:33 51°13.596 2°56.097 -999 -999 -999 -999
2007-07-10 08:18:33 51°13.594 2°56.098 -999 -999 -999 -999
2007-07-10 08:19:33 51°13.594 2°56.098 -999 -999 -999 -999
2007-07-10 08:20:33 51°13.595 2°56.098 -999 -999 -999 -999
2007-07-10 08:21:33 51°13.595 2°56.098 -999 -999 -999 -999
2007-07-10 08:22:33 51°13.595 2°56.099 -999 -999 -999 -999
2007-07-10 08:23:33 51°13.595 2°56.099 -999 -999 -999 -999
2007-07-10 08:24:33 51°13.596 2°56.098 -999 -999 -999 -999
2007-07-10 08:25:33 51°13.596 2°56.098 -999 -999 -999 -999
2007-07-10 08:26:33 51°13.596 2°56.097 -999 -999 -999 -999
2007-07-10 08:27:33 51°13.596 2°56.097 -999 -999 -999 -999
2007-07-10 08:28:33 51°13.597 2°56.096 -999 -999 -999 -999
2007-07-10 08:29:33 51°13.598 2°56.096 -999 -999 -999 -999
2007-07-10 08:30:33 51°13.596 2°56.097 -999 -999 -999 -999
2007-07-10 08:31:33 51°13.594 2°56.098 -999 -999 -999 -999
2007-07-10 08:32:33 51°13.594 2°56.098 -999 -999 -999 -999
2007-07-10 08:33:33 51°13.594 2°56.098 -999 -999 -999 -999
2007-07-10 08:34:33 51°13.593 2°56.098 -999 -999 -999 -999
2007-07-10 08:35:33 51°13.594 2°56.098 -999 -999 -999 -999
2007-07-10 08:36:33 51°13.596 2°56.099 -999 -999 -999 -999
2007-07-10 08:37:33 51°13.597 2°56.098 -999 -999 -999 -999
2007-07-10 08:38:33 51°13.597 2°56.099 -999 -999 -999 -999
2007-07-10 08:39:33 51°13.597 2°56.098 -999 -999 -999 -999
2007-07-10 08:40:33 51°13.596 2°56.097 -999 -999 -999 -999
2007-07-10 08:41:33 51°13.597 2°56.096 -999 -999 -999 -999
2007-07-10 08:42:31 51°13.596 2°56.096 -999 -999 -999 -999
2007-07-10 08:43:32 51°13.596 2°56.095 -999 -999 -999 -999
2007-07-10 08:44:30 51°13.596 2°56.096 -999 -999 -999 -999
2007-07-10 08:45:30 51°13.596 2°56.096 -999 -999 -999 -999
2007-07-10 08:46:30 51°13.596 2°56.096 -999 -999 -999 -999
2007-07-10 08:47:30 51°13.595 2°56.097 -999 -999 -999 -999
2007-07-10 08:48:30 51°13.596 2°56.096 -999 -999 -999 -999
2007-07-10 08:49:30 51°13.597 2°56.096 -999 -999 -999 -999
2007-07-10 08:50:30 51°13.598 2°56.095 -999 -999 -999 -999
2007-07-10 08:51:30 51°13.597 2°56.095 -999 -999 -999 -999
2007-07-10 08:52:30 51°13.598 2°56.096 -999 -999 -999 -999
2007-07-10 08:53:33 51°13.598 2°56.096 -999 -999 -999 -999
2007-07-10 08:54:33 51°13.597 2°56.097 -999 -999 -999 -999
2007-07-10 08:55:33 51°13.595 2°56.098 -999 -999 -999 -999
2007-07-10 08:56:32 51°13.598 2°56.094 -999 -999 -999 -999
2007-07-10 08:57:31 51°13.597 2°56.096 -999 -999 -999 -999
2007-07-10 08:58:31 51°13.597 2°56.096 -999 -999 -999 -999
2007-07-10 08:59:32 51°13.598 2°56.096 -999 -999 -999 -999
2007-07-10 09:00:31 51°13.598 2°56.096 -999 -999 -999 -999
2007-07-10 09:01:29 51°13.599 2°56.096 -999 -999 -999 -999
2007-07-10 09:02:30 51°13.599 2°56.095 -999 -999 -999 -999
2007-07-10 09:03:31 51°13.599 2°56.096 -999 -999 -999 -999
2007-07-10 09:04:30 51°13.598 2°56.096 -999 -999 -999 -999
2007-07-10 09:05:29 51°13.598 2°56.096 -999 -999 -999 -999
2007-07-10 09:06:30 51°13.598 2°56.096 -999 -999 -999 -999
2007-07-10 09:07:30 51°13.598 2°56.096 -999 -999 -999 -999
2007-07-10 09:08:30 51°13.597 2°56.097 -999 -999 -999 -999
2007-07-10 09:09:30 51°13.598 2°56.096 -999 -999 -999 -999
2007-07-10 09:10:30 51°13.599 2°56.095 -999 -999 -999 -999
2007-07-10 09:11:30 51°13.599 2°56.096 -999 -999 -999 -999
2007-07-10 09:12:30 51°13.6 2°56.084 -999 -999 -999 -999
2007-07-10 09:13:33 51°13.629 2°55.994 -999 -999 -999 -999
2007-07-10 09:14:33 51°13.673 2°55.891 -999 -999 -999 -999
2007-07-10 09:15:33 51°13.705 2°55.794 -999 -999 -999 -999
2007-07-10 09:16:33 51°13.714 2°55.717 -999 -999 -999 -999
2007-07-10 09:17:30 51°13.727 2°55.731 -999 -999 -999 -999
2007-07-10 09:18:33 51°13.72 2°55.729 -999 -999 -999 -999
2007-07-10 09:19:32 51°13.77 2°55.688 -999 -999 -999 -999
2007-07-10 09:20:30 51°13.872 2°55.606 -999 -999 -999 -999
2007-07-10 09:21:30 51°13.999 2°55.515 -999 -999 -999 -999
2007-07-10 09:22:30 51°14.127 2°55.424 -999 -999 -999 -999
2007-07-10 09:23:32 51°14.253 2°55.293 -999 -999 -999 -999
2007-07-10 09:24:31 51°14.355 2°55.092 -999 -999 -999 -999
2007-07-10 09:25:30 51°14.472 2°54.832 -999 -999 -999 -999
2007-07-10 09:26:29 51°14.588 2°54.563 -999 -999 -999 -999
2007-07-10 09:27:30 51°14.711 2°54.288 -999 -999 -999 -999
2007-07-10 09:28:29 51°14.831 2°54.024 -999 -999 -999 -999
2007-07-10 09:29:30 51°14.913 2°53.722 -999 -999 -999 -999
2007-07-10 09:30:30 51°14.92 2°53.397 -999 -999 -999 -999
2007-07-10 09:31:30 51°14.929 2°53.07 -999 -999 -999 -999
2007-07-10 09:32:30 51°14.941 2°52.741 -999 -999 -999 -999
2007-07-10 09:33:29 51°14.953 2°52.422 -999 -999 -999 -999
2007-07-10 09:34:29 51°14.967 2°52.098 -999 -999 -999 -999
2007-07-10 09:35:30 51°14.982 2°51.768 -999 -999 -999 -999
2007-07-10 09:36:30 51°15.048 2°51.459 -999 -999 -999 -999
2007-07-10 09:37:30 51°15.124 2°51.153 -999 -999 -999 -999
2007-07-10 09:38:30 51°15.19 2°50.843 -999 -999 -999 -999
2007-07-10 09:39:30 51°15.263 2°50.536 -999 -999 -999 -999
2007-07-10 09:40:30 51°15.336 2°50.229 -999 -999 -999 -999
2007-07-10 09:41:30 51°15.407 2°49.921 -999 -999 -999 -999
2007-07-10 09:42:29 51°15.476 2°49.617 -999 -999 -999 -999
2007-07-10 09:43:30 51°15.549 2°49.304 -999 -999 -999 -999
2007-07-10 09:44:29 51°15.618 2°49.002 -999 -999 -999 -999
2007-07-10 09:45:30 51°15.69 2°48.687 -999 -999 -999 -999
2007-07-10 09:46:30 51°15.76 2°48.375 -999 -999 -999 -999
2007-07-10 09:47:30 51°15.831 2°48.063 -999 -999 -999 -999
2007-07-10 09:48:30 51°15.902 2°47.754 -999 -999 -999 -999
2007-07-10 09:49:29 51°15.972 2°47.453 -999 -999 -999 -999
2007-07-10 09:50:29 51°16.045 2°47.148 -999 -999 -999 -999
2007-07-10 09:51:30 51°16.119 2°46.838 -999 -999 -999 -999
2007-07-10 09:52:30 51°16.192 2°46.529 -999 -999 -999 -999
2007-07-10 09:53:30 51°16.268 2°46.223 -999 -999 -999 -999
2007-07-10 09:54:30 51°16.341 2°45.914 -999 -999 -999 -999
2007-07-10 09:55:30 51°16.416 2°45.6 -999 -999 -999 -999
2007-07-10 09:56:30 51°16.491 2°45.288 -999 -999 -999 -999
2007-07-10 09:57:30 51°16.566 2°44.975 -999 -999 -999 -999
2007-07-10 09:58:30 51°16.64 2°44.663 -999 -999 -999 -999
2007-07-10 09:59:30 51°16.715 2°44.35 -999 -999 -999 -999
2007-07-10 10:00:30 51°16.79 2°44.036 -999 -999 -999 -999
2007-07-10 10:01:30 51°16.896 2°43.748 -999 -999 -999 -999
2007-07-10 10:02:29 51°17.027 2°43.485 -999 -999 -999 -999
2007-07-10 10:03:30 51°17.155 2°43.206 -999 -999 -999 -999
2007-07-10 10:04:30 51°17.279 2°42.934 -999 -999 -999 -999
2007-07-10 10:05:30 51°17.404 2°42.665 -999 -999 -999 -999
2007-07-10 10:06:30 51°17.533 2°42.394 -999 -999 -999 -999
2007-07-10 10:07:30 51°17.659 2°42.123 -999 -999 -999 -999
2007-07-10 10:08:30 51°17.782 2°41.849 -999 -999 -999 -999
2007-07-10 10:09:30 51°17.912 2°41.58 -999 -999 -999 -999
2007-07-10 10:10:30 51°18.038 2°41.31 -999 -999 -999 -999
2007-07-10 10:11:30 51°18.164 2°41.04 -999 -999 -999 -999
2007-07-10 10:12:30 51°18.29 2°40.776 -999 -999 -999 -999
2007-07-10 10:13:30 51°18.417 2°40.51 -999 -999 -999 -999
2007-07-10 10:14:30 51°18.546 2°40.248 -999 -999 -999 -999
2007-07-10 10:15:30 51°18.675 2°39.979 -999 -999 -999 -999
2007-07-10 10:16:30 51°18.805 2°39.709 -999 -999 -999 -999
2007-07-10 10:17:30 51°18.935 2°39.436 -999 -999 -999 -999
2007-07-10 10:18:30 51°19.062 2°39.161 -999 -999 -999 -999
2007-07-10 10:19:30 51°19.184 2°38.881 -999 -999 -999 -999
2007-07-10 10:20:30 51°19.302 2°38.598 -999 -999 -999 -999
2007-07-10 10:21:30 51°19.421 2°38.316 -999 -999 -999 -999
2007-07-10 10:22:30 51°19.539 2°38.034 -999 -999 -999 -999
2007-07-10 10:23:30 51°19.659 2°37.755 -999 -999 -999 -999
2007-07-10 10:24:30 51°19.778 2°37.477 -999 -999 -999 -999
2007-07-10 10:25:30 51°19.898 2°37.199 -999 -999 -999 -999
2007-07-10 10:26:30 51°19.988 2°36.991 -999 -999 -999 -999
2007-07-10 10:27:30 51°20.033 2°36.89 -999 -999 -999 -999
2007-07-10 10:28:30 51°20.079 2°36.868 -999 -999 -999 -999
2007-07-10 10:29:30 51°20.098 2°36.884 -999 -999 -999 -999
2007-07-10 10:30:30 51°20.107 2°36.9 -999 -999 -999 -999
2007-07-10 10:31:30 51°20.118 2°36.92 -999 -999 -999 -999
2007-07-10 10:32:30 51°20.13 2°36.942 -999 -999 -999 -999
2007-07-10 10:33:30 51°20.143 2°36.978 -999 -999 -999 -999
2007-07-10 10:34:31 51°20.159 2°36.995 -999 -999 -999 -999
2007-07-10 10:35:33 51°20.17 2°37.016 -999 -999 -999 -999
2007-07-10 10:36:31 51°20.157 2°37.055 -999 -999 -999 -999
2007-07-10 10:37:29 51°20.123 2°37.039 -999 -999 -999 -999
2007-07-10 10:38:30 51°20.107 2°36.997 -999 -999 -999 -999
2007-07-10 10:39:30 51°20.094 2°36.955 -999 -999 -999 -999
2007-07-10 10:40:30 51°20.086 2°36.921 -999 -999 -999 -999
2007-07-10 10:41:30 51°20.089 2°36.92 -999 -999 -999 -999
2007-07-10 10:42:31 51°20.092 2°36.923 -999 -999 -999 -999
2007-07-10 10:43:30 51°20.098 2°36.929 -999 -999 -999 -999
2007-07-10 10:44:31 51°20.107 2°36.948 -999 -999 -999 -999
2007-07-10 10:45:30 51°20.117 2°36.969 -999 -999 -999 -999
2007-07-10 10:46:29 51°20.119 2°36.967 -999 -999 -999 -999
2007-07-10 10:47:30 51°20.102 2°36.954 -999 -999 -999 -999
2007-07-10 10:48:29 51°20.079 2°36.926 -999 -999 -999 -999
2007-07-10 10:49:30 51°20.065 2°36.909 -999 -999 -999 -999
2007-07-10 10:50:30 51°20.06 2°36.909 -999 -999 -999 -999
2007-07-10 10:51:30 51°20.058 2°36.912 -999 -999 -999 -999
2007-07-10 10:52:30 51°20.055 2°36.914 -999 -999 -999 -999
2007-07-10 10:53:30 51°20.055 2°36.921 -999 -999 -999 -999
2007-07-10 10:54:30 51°20.058 2°36.93 -999 -999 -999 -999
2007-07-10 10:55:30 51°20.063 2°36.942 -999 -999 -999 -999
2007-07-10 10:56:30 51°20.067 2°36.957 -999 -999 -999 -999
2007-07-10 10:57:30 51°20.073 2°36.975 -999 -999 -999 -999
2007-07-10 10:58:30 51°20.081 2°36.995 -999 -999 -999 -999
2007-07-10 10:59:30 51°20.089 2°37.015 -999 -999 -999 -999
2007-07-10 11:00:30 51°20.098 2°37.035 -999 -999 -999 -999
2007-07-10 11:01:30 51°20.107 2°37.053 -999 -999 -999 -999
2007-07-10 11:02:30 51°20.115 2°37.071 -999 -999 -999 -999
2007-07-10 11:03:30 51°20.124 2°37.088 -999 -999 -999 -999
2007-07-10 11:04:29 51°20.133 2°37.105 -999 -999 -999 -999
2007-07-10 11:05:30 51°20.134 2°37.126 -999 -999 -999 -999
2007-07-10 11:06:30 51°20.088 2°37.099 -999 -999 -999 -999
2007-07-10 11:07:29 51°20.053 2°36.97 -999 -999 -999 -999
2007-07-10 11:08:30 51°20.045 2°36.859 -999 -999 -999 -999
2007-07-10 11:09:30 51°20.03 2°36.815 -999 -999 -999 -999
2007-07-10 11:10:30 51°20.025 2°36.795 -999 -999 -999 -999
2007-07-10 11:11:30 51°20.024 2°36.784 -999 -999 -999 -999
2007-07-10 11:12:30 51°20.025 2°36.78 -999 -999 -999 -999
2007-07-10 11:13:30 51°20.028 2°36.782 -999 -999 -999 -999
2007-07-10 11:14:30 51°20.032 2°36.789 -999 -999 -999 -999
2007-07-10 11:15:30 51°20.036 2°36.801 -999 -999 -999 -999
2007-07-10 11:16:30 51°20.042 2°36.815 -999 -999 -999 -999
2007-07-10 11:17:30 51°20.048 2°36.831 -999 -999 -999 -999
2007-07-10 11:18:30 51°20.055 2°36.848 -999 -999 -999 -999
2007-07-10 11:19:30 51°20.05 2°36.865 -999 -999 -999 -999
2007-07-10 11:20:30 51°20.037 2°36.888 -999 -999 -999 -999
2007-07-10 11:21:30 51°20.028 2°36.918 -999 -999 -999 -999
2007-07-10 11:22:30 51°20.028 2°36.935 -999 -999 -999 -999
2007-07-10 11:23:30 51°20.038 2°36.945 -999 -999 -999 -999
2007-07-10 11:24:30 51°20.049 2°36.955 -999 -999 -999 -999
2007-07-10 11:25:30 51°20.048 2°36.976 -999 -999 -999 -999
2007-07-10 11:26:30 51°20.048 2°36.993 -999 -999 -999 -999
2007-07-10 11:27:30 51°20.048 2°37.009 -999 -999 -999 -999
2007-07-10 11:28:30 51°20.049 2°37.023 -999 -999 -999 -999
2007-07-10 11:29:30 51°20.051 2°37.035 -999 -999 -999 -999
2007-07-10 11:30:30 51°20.054 2°37.046 -999 -999 -999 -999
2007-07-10 11:31:30 51°20.056 2°37.056 -999 -999 -999 -999
2007-07-10 11:32:30 51°20.059 2°37.066 -999 -999 -999 -999
2007-07-10 11:33:30 51°20.063 2°37.075 -999 -999 -999 -999
2007-07-10 11:34:29 51°20.066 2°37.085 -999 -999 -999 -999
2007-07-10 11:35:30 51°20.071 2°37.096 -999 -999 -999 -999
2007-07-10 11:36:30 51°20.075 2°37.107 -999 -999 -999 -999
2007-07-10 11:37:30 51°20.08 2°37.117 -999 -999 -999 -999
2007-07-10 11:38:30 51°20.084 2°37.127 -999 -999 -999 -999
2007-07-10 11:39:30 51°20.088 2°37.138 -999 -999 -999 -999
2007-07-10 11:40:30 51°20.094 2°37.149 -999 -999 -999 -999
2007-07-10 11:41:30 51°20.097 2°37.161 -999 -999 -999 -999
2007-07-10 11:42:30 51°20.102 2°37.171 -999 -999 -999 -999
2007-07-10 11:43:30 51°20.107 2°37.18 -999 -999 -999 -999
2007-07-10 11:44:30 51°20.111 2°37.19 -999 -999 -999 -999
2007-07-10 11:45:30 51°20.115 2°37.2 -999 -999 -999 -999
2007-07-10 11:46:30 51°20.12 2°37.21 -999 -999 -999 -999
2007-07-10 11:47:30 51°20.123 2°37.22 -999 -999 -999 -999
2007-07-10 11:48:30 51°20.126 2°37.229 -999 -999 -999 -999
2007-07-10 11:49:30 51°20.13 2°37.237 -999 -999 -999 -999
2007-07-10 11:50:30 51°20.134 2°37.245 -999 -999 -999 -999
2007-07-10 11:51:30 51°20.138 2°37.253 -999 -999 -999 -999
2007-07-10 11:52:30 51°20.141 2°37.261 -999 -999 -999 -999
2007-07-10 11:53:30 51°20.145 2°37.268 -999 -999 -999 -999
2007-07-10 11:54:30 51°20.135 2°37.269 -999 -999 -999 -999
2007-07-10 11:55:30 51°20.111 2°37.249 -999 -999 -999 -999
2007-07-10 11:56:30 51°20.086 2°37.213 -999 -999 -999 -999
2007-07-10 11:57:30 51°20.062 2°37.166 -999 -999 -999 -999
2007-07-10 11:58:30 51°20.05 2°37.107 -999 -999 -999 -999
2007-07-10 11:59:30 51°20.045 2°37.062 -999 -999 -999 -999
2007-07-10 12:00:30 51°20.041 2°37.029 -999 -999 -999 -999
2007-07-10 12:01:30 51°20.039 2°37.005 -999 -999 -999 -999
2007-07-10 12:02:30 51°20.039 2°36.988 -999 -999 -999 -999
2007-07-10 12:03:30 51°20.039 2°36.977 -999 -999 -999 -999
2007-07-10 12:04:30 51°20.04 2°36.97 -999 -999 -999 -999
2007-07-10 12:05:30 51°20.041 2°36.959 -999 -999 -999 -999
2007-07-10 12:06:30 51°20.041 2°36.953 -999 -999 -999 -999
2007-07-10 12:07:30 51°20.041 2°36.95 -999 -999 -999 -999
2007-07-10 12:08:31 51°20.041 2°36.949 -999 -999 -999 -999
2007-07-10 12:09:30 51°20.04 2°36.951 -999 -999 -999 -999
2007-07-10 12:10:30 51°20.04 2°36.955 -999 -999 -999 -999
2007-07-10 12:11:30 51°20.04 2°36.96 -999 -999 -999 -999
2007-07-10 12:12:30 51°20.041 2°36.964 -999 -999 -999 -999
2007-07-10 12:13:30 51°20.042 2°36.969 -999 -999 -999 -999
2007-07-10 12:14:30 51°20.043 2°36.972 -999 -999 -999 -999
2007-07-10 12:15:30 51°20.045 2°36.974 -999 -999 -999 -999
2007-07-10 12:16:30 51°20.047 2°36.977 -999 -999 -999 -999
2007-07-10 12:17:30 51°20.049 2°36.979 -999 -999 -999 -999
2007-07-10 12:18:30 51°20.051 2°36.981 -999 -999 -999 -999
2007-07-10 12:19:30 51°20.053 2°36.983 -999 -999 -999 -999
2007-07-10 12:20:30 51°20.056 2°36.984 -999 -999 -999 -999
2007-07-10 12:21:30 51°20.058 2°36.986 -999 -999 -999 -999
2007-07-10 12:22:30 51°20.06 2°36.987 -999 -999 -999 -999
2007-07-10 12:23:30 51°20.063 2°36.987 -999 -999 -999 -999
2007-07-10 12:24:30 51°20.065 2°36.987 -999 -999 -999 -999
2007-07-10 12:25:30 51°20.068 2°36.988 -999 -999 -999 -999
2007-07-10 12:26:30 51°20.07 2°36.988 -999 -999 -999 -999
2007-07-10 12:27:30 51°20.074 2°36.989 -999 -999 -999 -999
2007-07-10 12:28:30 51°20.077 2°36.989 -999 -999 -999 -999
2007-07-10 12:29:30 51°20.081 2°36.989 -999 -999 -999 -999
2007-07-10 12:30:30 51°20.084 2°36.989 -999 -999 -999 -999
2007-07-10 12:31:30 51°20.087 2°36.987 -999 -999 -999 -999
2007-07-10 12:32:30 51°20.09 2°36.986 -999 -999 -999 -999
2007-07-10 12:33:30 51°20.087 2°36.987 -999 -999 -999 -999
2007-07-10 12:34:30 51°20.054 2°36.967 -999 -999 -999 -999
2007-07-10 12:35:30 51°20.031 2°36.909 -999 -999 -999 -999
2007-07-10 12:36:30 51°20.025 2°36.893 -999 -999 -999 -999
2007-07-10 12:37:32 51°20.021 2°36.863 -999 -999 -999 -999
2007-07-10 12:38:30 51°20.052 2°36.82 -999 -999 -999 -999
2007-07-10 12:39:30 51°20.07 2°36.816 -999 -999 -999 -999
2007-07-10 12:40:30 51°20.082 2°36.833 -999 -999 -999 -999
2007-07-10 12:41:30 51°20.094 2°36.869 -999 -999 -999 -999
2007-07-10 12:42:30 51°20.101 2°36.876 -999 -999 -999 -999
2007-07-10 12:43:30 51°20.111 2°36.881 -999 -999 -999 -999
2007-07-10 12:44:30 51°20.124 2°36.89 -999 -999 -999 -999
2007-07-10 12:45:30 51°20.121 2°36.886 -999 -999 -999 -999
2007-07-10 12:46:30 51°20.115 2°36.881 -999 -999 -999 -999
2007-07-10 12:47:30 51°20.108 2°36.875 -999 -999 -999 -999
2007-07-10 12:48:30 51°20.11 2°36.889 -999 -999 -999 -999
2007-07-10 12:49:30 51°20.114 2°36.927 -999 -999 -999 -999
2007-07-10 12:50:30 51°20.109 2°36.921 -999 -999 -999 -999
2007-07-10 12:51:30 51°20.106 2°36.92 -999 -999 -999 -999
2007-07-10 12:52:30 51°20.102 2°36.915 -999 -999 -999 -999
2007-07-10 12:53:30 51°20.097 2°36.909 -999 -999 -999 -999
2007-07-10 12:54:30 51°20.092 2°36.903 -999 -999 -999 -999
2007-07-10 12:55:30 51°20.088 2°36.897 -999 -999 -999 -999
2007-07-10 12:56:30 51°20.085 2°36.891 -999 -999 -999 -999
2007-07-10 12:57:30 51°20.08 2°36.885 -999 -999 -999 -999
2007-07-10 12:58:30 51°20.076 2°36.88 -999 -999 -999 -999
2007-07-10 12:59:30 51°20.072 2°36.876 -999 -999 -999 -999
2007-07-10 13:00:30 51°20.067 2°36.872 -999 -999 -999 -999
2007-07-10 13:01:30 51°20.062 2°36.868 -999 -999 -999 -999
2007-07-10 13:02:30 51°20.057 2°36.863 -999 -999 -999 -999
2007-07-10 13:03:30 51°20.052 2°36.859 -999 -999 -999 -999
2007-07-10 13:04:30 51°20.047 2°36.855 -999 -999 -999 -999
2007-07-10 13:05:30 51°20.041 2°36.85 -999 -999 -999 -999
2007-07-10 13:06:30 51°20.035 2°36.845 -999 -999 -999 -999
2007-07-10 13:07:30 51°20.03 2°36.839 -999 -999 -999 -999
2007-07-10 13:08:30 51°20.024 2°36.833 -999 -999 -999 -999
2007-07-10 13:09:30 51°20.018 2°36.827 -999 -999 -999 -999
2007-07-10 13:10:30 51°20.012 2°36.821 -999 -999 -999 -999
2007-07-10 13:11:30 51°20.005 2°36.813 -999 -999 -999 -999
2007-07-10 13:12:30 51°19.997 2°36.805 -999 -999 -999 -999
2007-07-10 13:13:30 51°19.989 2°36.797 -999 -999 -999 -999
2007-07-10 13:14:30 51°19.981 2°36.789 -999 -999 -999 -999
2007-07-10 13:15:30 51°19.973 2°36.782 -999 -999 -999 -999
2007-07-10 13:16:30 51°19.964 2°36.775 -999 -999 -999 -999
2007-07-10 13:17:30 51°19.962 2°36.775 -999 -999 -999 -999
2007-07-10 13:18:30 51°19.987 2°36.882 -999 -999 -999 -999
2007-07-10 13:19:30 51°19.889 2°37.111 -999 -999 -999 -999
2007-07-10 13:20:30 51°19.771 2°37.384 -999 -999 -999 -999
2007-07-10 13:21:30 51°19.651 2°37.656 -999 -999 -999 -999
2007-07-10 13:22:30 51°19.531 2°37.928 -999 -999 -999 -999
2007-07-10 13:23:29 51°19.413 2°38.196 -999 -999 -999 -999
2007-07-10 13:24:30 51°19.289 2°38.475 -999 -999 -999 -999
2007-07-10 13:25:30 51°19.167 2°38.751 -999 -999 -999 -999
2007-07-10 13:26:30 51°19.047 2°39.03 -999 -999 -999 -999
2007-07-10 13:27:30 51°18.929 2°39.312 -999 -999 -999 -999
2007-07-10 13:28:30 51°18.809 2°39.593 -999 -999 -999 -999
2007-07-10 13:29:30 51°18.69 2°39.872 -999 -999 -999 -999
2007-07-10 13:30:30 51°18.568 2°40.148 -999 -999 -999 -999
2007-07-10 13:31:30 51°18.45 2°40.414 -999 -999 -999 -999
2007-07-10 13:32:30 51°18.329 2°40.679 -999 -999 -999 -999
2007-07-10 13:33:30 51°18.207 2°40.944 -999 -999 -999 -999
2007-07-10 13:34:30 51°18.086 2°41.215 -999 -999 -999 -999
2007-07-10 13:35:30 51°17.965 2°41.489 -999 -999 -999 -999
2007-07-10 13:36:30 51°17.844 2°41.764 -999 -999 -999 -999
2007-07-10 13:37:30 51°17.719 2°42.036 -999 -999 -999 -999
2007-07-10 13:38:30 51°17.595 2°42.309 -999 -999 -999 -999
2007-07-10 13:39:30 51°17.474 2°42.584 -999 -999 -999 -999
2007-07-10 13:40:30 51°17.359 2°42.851 -999 -999 -999 -999
2007-07-10 13:41:30 51°17.246 2°43.111 -999 -999 -999 -999
2007-07-10 13:42:30 51°17.128 2°43.376 -999 -999 -999 -999
2007-07-10 13:43:30 51°17.007 2°43.647 -999 -999 -999 -999
2007-07-10 13:44:30 51°16.883 2°43.917 -999 -999 -999 -999
2007-07-10 13:45:30 51°16.761 2°44.19 -999 -999 -999 -999
2007-07-10 13:46:29 51°16.642 2°44.46 -999 -999 -999 -999
2007-07-10 13:47:30 51°16.521 2°44.739 -999 -999 -999 -999
2007-07-10 13:48:30 51°16.407 2°45.017 -999 -999 -999 -999
2007-07-10 13:49:30 51°16.33 2°45.321 -999 -999 -999 -999
2007-07-10 13:50:30 51°16.251 2°45.624 -999 -999 -999 -999
2007-07-10 13:51:30 51°16.175 2°45.928 -999 -999 -999 -999
2007-07-10 13:52:30 51°16.101 2°46.232 -999 -999 -999 -999
2007-07-10 13:53:30 51°16.039 2°46.54 -999 -999 -999 -999
2007-07-10 13:54:30 51°15.976 2°46.848 -999 -999 -999 -999
2007-07-10 13:55:30 51°15.911 2°47.153 -999 -999 -999 -999
2007-07-10 13:56:30 51°15.849 2°47.456 -999 -999 -999 -999
2007-07-10 13:57:30 51°15.788 2°47.757 -999 -999 -999 -999
2007-07-10 13:58:30 51°15.726 2°48.062 -999 -999 -999 -999
2007-07-10 13:59:30 51°15.664 2°48.367 -999 -999 -999 -999
2007-07-10 14:00:30 51°15.602 2°48.673 -999 -999 -999 -999
2007-07-10 14:01:30 51°15.541 2°48.981 -999 -999 -999 -999
2007-07-10 14:02:30 51°15.477 2°49.29 -999 -999 -999 -999
2007-07-10 14:03:30 51°15.41 2°49.597 -999 -999 -999 -999
2007-07-10 14:04:30 51°15.346 2°49.902 -999 -999 -999 -999
2007-07-10 14:05:30 51°15.286 2°50.208 -999 -999 -999 -999
2007-07-10 14:06:30 51°15.224 2°50.513 -999 -999 -999 -999
2007-07-10 14:07:30 51°15.169 2°50.82 -999 -999 -999 -999
2007-07-10 14:08:30 51°15.118 2°51.125 -999 -999 -999 -999
2007-07-10 14:09:30 51°15.073 2°51.434 -999 -999 -999 -999
2007-07-10 14:10:30 51°15.026 2°51.745 -999 -999 -999 -999
2007-07-10 14:11:30 51°14.975 2°52.053 -999 -999 -999 -999
2007-07-10 14:12:30 51°14.931 2°52.364 -999 -999 -999 -999
2007-07-10 14:13:30 51°14.886 2°52.677 -999 -999 -999 -999
2007-07-10 14:14:30 51°14.84 2°52.991 -999 -999 -999 -999
2007-07-10 14:15:30 51°14.794 2°53.31 -999 -999 -999 -999
2007-07-10 14:16:30 51°14.746 2°53.628 -999 -999 -999 -999
2007-07-10 14:17:30 51°14.7 2°53.949 -999 -999 -999 -999
2007-07-10 14:18:30 51°14.642 2°54.264 -999 -999 -999 -999
2007-07-10 14:19:30 51°14.557 2°54.561 -999 -999 -999 -999
2007-07-10 14:20:30 51°14.454 2°54.843 -999 -999 -999 -999
2007-07-10 14:21:30 51°14.339 2°55.118 -999 -999 -999 -999
2007-07-10 14:22:30 51°14.203 2°55.345 -999 -999 -999 -999
2007-07-10 14:23:30 51°14.058 2°55.464 -999 -999 -999 -999
2007-07-10 14:24:30 51°13.915 2°55.567 -999 -999 -999 -999
2007-07-10 14:25:30 51°13.792 2°55.671 -999 -999 -999 -999
2007-07-10 14:26:30 51°13.705 2°55.812 -999 -999 -999 -999
2007-07-10 14:27:30 51°13.646 2°55.932 -999 -999 -999 -999
2007-07-10 14:28:34 51°13.615 2°56.032 -999 -999 -999 -999
2007-07-10 14:29:33 51°13.6 2°56.088 -999 -999 -999 -999